Stations météo

Publicité
Lahr, Allemagne (10805): Température de l'air & dewpoint: 15.01.2018 04:00:00 - 21.01.2018 04:00:00 (CET)Lahr, Allemagne (10805): Température de l'air 5cm & Température de l'air -5cm: 15.01.2018 04:00:00 - 21.01.2018 04:00:00 (CET)Lahr, Allemagne (10805): Température de l'air -20cm & Température de l'air -100cm: 15.01.2018 04:00:00 - 21.01.2018 04:00:00 (CET)Lahr, Allemagne (10805): Vitesse du vent & gusts: 15.01.2018 04:00:00 - 21.01.2018 04:00:00 (CET)Lahr, Allemagne (10805): Direction du vent: 15.01.2018 04:00:00 - 21.01.2018 04:00:00 (CET)Lahr, Allemagne (10805): reduced air pressure: 15.01.2018 04:00:00 - 21.01.2018 04:00:00 (CET)Lahr, Allemagne (10805): visibility: 15.01.2018 04:00:00 - 21.01.2018 04:00:00 (CET)Lahr, Allemagne (10805): Ensoleillement: 15.01.2018 04:00:00 - 21.01.2018 04:00:00 (CET)Lahr, Allemagne (10805): Quantités de précipitations: 15.01.2018 04:00:00 - 21.01.2018 04:00:00 (CET)
Date & Time tt [°C] td [°C] tt 5cm [°C] tt -5cm [°C] tt -20cm [°C] tt -100cm [°C] ff [km/h] ff [knt] fx [km/h] fx [knt] dd ppp [hPa] vv [km] sd [min] rr [mm]
21.01.2018 04:00:00 5,1 3,2 4,4 4,3 4,8 6,8 5 3 8 5 N 1008,4 64 0 0,0
21.01.2018 03:00:00 4,8 3,2 4,1 4,3 4,8 6,8 5 3 21 12 NNE 1007,3 64 0 0,0
21.01.2018 02:00:00 5,3 3,4 4,6 4,6 4,8 6,8 13 7 27 14 N 1005,3 56 0 0,0
21.01.2018 01:00:00 5,3 4,5 4,9 4,8 4,8 6,8 16 9 30 16 NNW 1003,5 20 0 0,2
21.01.2018 00:00:00 5,3 5,0 5,2 4,8 4,7 6,8 12 6 16 9 N 1002,2 3,0 0 0,2
20.01.2018 23:00:00 5,9 5,6 5,4 4,8 4,7 6,8 4 2 10 5 N 1000,7 5 0 0,3
20.01.2018 22:00:00 6,3 5,4 5,6 4,9 4,6 6,8 6 4 25 14 WSW 999,9 21 0 0,4
20.01.2018 21:00:00 6,5 4,9 5,7 4,8 4,6 6,8 17 9 25 13 S 999,6 10 0 0,0
20.01.2018 20:00:00 6,3 4,6 5,5 4,7 4,6 6,8 16 9 27 14 S 999,5 68 0 0,5
20.01.2018 19:00:00 6,3 4,0 5,5 4,5 4,5 6,8 16 9 32 17 SSW 999,1 58 0 0,5
20.01.2018 18:00:00 5,4 3,6 4,6 4,4 4,5 6,9 22 12 44 24 SSW 998,5 14 0 0,6
20.01.2018 17:00:00 5,2 3,0 4,2 4,5 4,5 6,9 29 15 49 26 S 999,3 6 0 0,4
20.01.2018 16:00:00 5,9 2,3 4,9 4,8 4,4 6,9 27 15 47 25 S 1000,9 46 0 0,5
20.01.2018 15:00:00 6,0 2,2 4,8 5,0 4,2 6,9 21 11 33 18 S 1002,6 17 0 0,0
20.01.2018 14:00:00 6,1 1,5 6,0 5,0 4,1 6,9 21 12 41 22 S 1004,9 52 0 0,0
20.01.2018 13:00:00 5,8 1,7 5,9 4,7 4,0 6,9 30 16 45 25 S 1006,9 67 0 0,0
20.01.2018 12:00:00 5,2 2,0 5,1 4,2 3,9 6,9 27 15 40 22 SSW 1009,5 44 0 0,0
20.01.2018 11:00:00 5,0 2,0 4,9 3,7 3,8 6,9 24 13 38 21 S 1011,2 53 0 0,0
20.01.2018 10:00:00 4,5 2,0 4,2 3,1 3,8 6,9 22 12 31 17 SSW 1012,3 43 0 0,0
20.01.2018 09:00:00 3,9 1,9 3,3 2,7 3,7 6,9 19 11 28 15 S 1013,0 39 0 0,1
20.01.2018 08:00:00 3,7 2,0 2,9 2,6 3,7 6,9 17 9 26 14 SSW 1013,5 15 0 0,0
20.01.2018 07:00:00 3,4 1,8 2,9 2,5 3,7 6,9 16 8 33 18 S 1014,1 48 0 0,2
20.01.2018 06:00:00 3,6 1,7 2,8 2,3 3,8 6,8 21 12 30 16 SSW 1014,5 26 0 0,2
20.01.2018 05:00:00 3,3 1,5 2,5 2,0 3,9 6,8 18 10 29 16 SSW 1015,1 3,2 0 0,1
20.01.2018 04:00:00 3,1 0,9 2,1 1,4 4,0 6,8 21 11 32 17 S 1014,9 40 0 0,0
20.01.2018 03:00:00 2,8 0,7 1,7 1,8 4,1 6,8 18 10 29 16 SSW 1015,7 53 0 0,0
20.01.2018 02:00:00 3,2 1,1 2,5 2,1 4,2 6,8 16 9 25 14 S 1016,2 27 0 0,0
20.01.2018 01:00:00 3,2 1,0 2,6 1,7 4,4 6,8 16 8 23 12 S 1016,3 54 0 0,0
20.01.2018 00:00:00 3,1 0,6 2,0 1,6 4,5 6,8 16 9 23 13 S 1016,2 57 0 0,0
19.01.2018 23:00:00 2,6 0,7 1,2 2,2 4,7 6,8 9 5 24 13 SSW 1015,8 57 0 0,0
19.01.2018 22:00:00 3,4 1,4 2,5 2,9 4,8 6,8 16 9 27 14 SW 1015,4 68 0 0,0
19.01.2018 21:00:00 3,7 2,0 3,0 3,2 4,9 6,8 15 8 21 11 SSW 1014,9 70 0 0,0
19.01.2018 20:00:00 3,2 2,0 2,6 3,6 5,0 6,8 14 8 40 22 SSW 1014,3 70 0 0,8
19.01.2018 19:00:00 4,0 2,4 3,4 4,2 5,0 6,8 18 10 27 14 SW 1013,6 15 0 1,3
19.01.2018 18:00:00 5,1 2,5 4,0 4,5 5,0 6,8 12 7 29 16 WSW 1012,9 9 0 0,1
19.01.2018 17:00:00 6,2 1,8 5,8 4,7 5,0 6,8 15 8 42 23 SSW 1012,7 70 0 0,0
19.01.2018 16:00:00 6,5 1,6 5,7 5,2 4,9 6,8 23 12 35 19 SSW 1012,9 15 0 0,0
19.01.2018 15:00:00 7,0 0,9 6,9 5,6 4,8 6,8 14 8 35 19 SSW 1012,8 65 9 0,0
19.01.2018 14:00:00 6,6 1,4 6,4 5,6 4,7 6,8 9 5 15 8 S 1013,3 62 1 0,0
19.01.2018 13:00:00 6,2 1,4 6,3 4,9 4,6 6,8 4 2 35 19 W 1014,4 62 0 0,0
19.01.2018 12:00:00 6,2 1,6 6,4 4,6 4,5 6,8 13 7 22 12 SSW 1014,7 69 0 0,0
19.01.2018 11:00:00 5,6 0,7 5,4 3,7 4,6 6,8 13 7 21 11 SSW 1014,9 70 0 0,0
19.01.2018 10:00:00 4,9 0,4 4,5 3,1 4,7 6,8 13 7 28 15 SSW 1014,5 65 0 0,0
19.01.2018 09:00:00 4,4 0,3 3,6 2,5 4,9 6,8 12 6 21 11 S 1014,0 65 0 0,0
19.01.2018 08:00:00 3,3 0,4 1,5 2,3 5,0 6,8 13 7 18 10 S 1013,1 10 0 0,0
19.01.2018 07:00:00 4,1 1,2 2,5 3,1 5,2 6,8 11 6 26 14 SW 1012,1 70 0 0,0
19.01.2018 06:00:00 4,9 2,4 3,5 4,1 5,3 6,8 16 9 25 13 WSW 1011,2 70 0 0,0
19.01.2018 05:00:00 4,0 3,2 3,2 4,3 5,4 6,8 5 3 16 9 S 1010,4 70 0 0,0
19.01.2018 04:00:00 5,2 2,9 4,1 4,9 5,4 6,8 10 5 41 22 W 1009,7 38 0 3,6
19.01.2018 03:00:00 7,3 3,5 5,7 5,2 5,4 6,8 23 13 57 31 WSW 1008,5 13 0 0,7
19.01.2018 02:00:00 7,7 4,8 6,0 5,4 5,4 6,8 25 14 39 21 SW 1007,7 4,1 0 0,1
19.01.2018 01:00:00 6,6 4,9 5,9 5,4 5,4 6,9 4 2 24 13 S 1007,6 40 0 0,0
19.01.2018 00:00:00 7,2 4,4 6,6 5,4 5,4 6,9 20 11 34 18 SW 1007,3 36 0 0,0
18.01.2018 23:00:00 7,3 4,5 6,4 5,5 5,5 6,9 15 8 31 17 SSW 1007,2 70 0 0,0
18.01.2018 22:00:00 7,3 4,8 6,4 5,5 5,5 6,9 15 8 26 14 SSW 1007,1 70 0 0,0
18.01.2018 21:00:00 7,1 5,3 6,4 5,8 5,5 6,9 19 11 25 13 S 1007,4 70 0 0,2
18.01.2018 20:00:00 7,5 5,2 6,1 6,2 5,4 6,9 8 4 16 9 W 1008,0 8 0 1,7
18.01.2018 19:00:00 7,8 6,7 6,9 6,5 5,3 6,9 4 2 34 18 W 1007,6 4,3 0 1,2
18.01.2018 18:00:00 8,4 6,6 7,4 6,6 5,2 6,9 13 7 49 27 SW 1006,8 15 0 3,1
18.01.2018 17:00:00 9,7 5,9 7,6 6,7 5,0 6,9 32 17 62 33 SSW 1005,1 13 0 0,1
18.01.2018 16:00:00 10,2 5,3 9,6 6,7 4,9 6,9 40 21 59 32 SSW 1004,6 70 0 0,0
18.01.2018 15:00:00 9,1 5,6 8,7 6,5 4,7 6,9 32 18 61 33 S 1004,8 70 0 0,0
18.01.2018 14:00:00 8,5 5,2 8,3 6,7 4,4 6,9 40 22 76 41 S 1005,9 70 0 0,2
18.01.2018 13:00:00 8,7 4,9 9,1 6,9 4,2 6,9 41 22 61 33 SSW 1006,5 52 8 0,0
18.01.2018 12:00:00 7,5 4,1 7,4 5,0 4,1 6,9 37 20 60 33 SSW 1007,6 50 0 0,0
18.01.2018 11:00:00 6,9 3,2 6,5 4,5 4,0 6,9 40 21 66 36 SSW 1007,8 70 0 0,0
18.01.2018 10:00:00 6,2 2,4 5,9 4,0 4,0 6,9 38 21 66 35 S 1007,9 70 0 0,0
18.01.2018 09:00:00 5,5 2,2 4,6 3,6 3,9 6,9 44 24 72 39 S 1007,9 57 0 0,3
18.01.2018 08:00:00 4,5 2,4 3,5 3,4 3,9 6,9 45 24 73 39 SSW 1008,4 9 0 1,7
18.01.2018 07:00:00 4,8 2,3 3,6 3,4 3,9 6,9 42 23 68 37 SSW 1009,3 8 0 0,7
18.01.2018 06:00:00 4,5 2,5 3,5 3,3 3,9 6,9 38 20 58 31 SSW 1010,6 11 0 0,8
18.01.2018 05:00:00 4,5 2,2 3,4 3,2 3,8 6,9 33 18 53 28 SSW 1012,3 9 0 0,4
18.01.2018 04:00:00 4,7 1,7 3,8 3,0 3,8 6,9 29 16 44 24 SSW 1013,6 22 0 0,0
18.01.2018 03:00:00 4,5 1,6 3,5 2,8 3,8 6,9 26 14 38 21 SSW 1014,7 13 0 0,0
18.01.2018 02:00:00 3,9 1,6 3,1 2,7 3,9 6,9 22 12 33 18 S 1015,7 37 0 0,2
18.01.2018 01:00:00 3,8 1,2 3,0 2,6 3,9 6,9 22 12 39 21 S 1016,2 24 0 0,1
18.01.2018 00:00:00 3,7 0,8 3,0 2,4 3,9 6,9 17 9 33 18 S 1016,1 37 0 0,1
17.01.2018 23:00:00 3,3 0,7 2,6 2,2 4,0 6,9 23 13 34 19 S 1015,9 38 0 0,0
17.01.2018 22:00:00 2,6 1,0 1,8 2,2 4,1 6,9 16 9 31 17 S 1016,3 34 0 0,1
17.01.2018 21:00:00 2,5 0,9 1,7 2,6 4,2 6,9 25 14 59 32 SW 1016,4 23 0 1,4
17.01.2018 20:00:00 4,9 -0,2 4,3 2,5 4,3 6,9 22 12 60 33 WSW 1015,5 48 0 0,0
17.01.2018 19:00:00 5,0 -0,9 3,7 2,6 4,4 6,9 27 14 39 21 WSW 1014,5 51 0 0,0
17.01.2018 18:00:00 4,7 -0,3 3,3 3,2 4,4 6,9 27 14 54 29 WSW 1014,1 9 0 0,0
17.01.2018 17:00:00 5,3 -1,0 4,5 3,6 4,4 6,9 31 17 53 29 WSW 1013,2 44 3 0,0
17.01.2018 16:00:00 5,4 -0,9 5,0 4,8 4,4 7,0 29 16 45 24 WSW 1012,4 49 27 0,0
17.01.2018 15:00:00 4,7 -0,7 3,8 4,3 4,2 7,0 29 16 45 24 W 1012,1 44 6 0,0
17.01.2018 14:00:00 4,6 -0,5 4,7 5,2 4,1 7,0 29 16 45 24 W 1011,3 55 24 0,0
17.01.2018 13:00:00 5,5 0,6 6,6 4,5 4,0 7,0 16 9 34 18 WSW 1010,6 54 17 0,0
17.01.2018 12:00:00 3,5 0,1 3,6 3,3 4,1 7,0 16 9 38 20 W 1010,6 67 25 0,4
17.01.2018 11:00:00 0,7 0,2 0,1 1,5 4,2 7,0 17 9 61 33 W 1009,8 13 0 1,1
17.01.2018 10:00:00 3,3 0,4 2,4 2,4 4,3 7,0 27 14 52 28 WSW 1006,9 63 0 0,0
17.01.2018 09:00:00 3,0 -0,1 2,2 2,1 4,4 7,0 24 13 36 19 SW 1005,8 70 0 0,0
17.01.2018 08:00:00 3,2 0,2 1,7 2,3 4,6 7,0 16 9 40 22 WSW 1004,9 70 0 0,1
17.01.2018 07:00:00 2,5 0,5 1,5 2,3 4,7 7,0 30 16 59 32 WSW 1003,6 13 0 2,5
17.01.2018 06:00:00 5,2 0,2 4,5 3,4 4,8 7,0 22 12 49 26 W 1002,3 70 0 0,0
17.01.2018 05:00:00 5,3 1,3 4,9 3,7 4,9 7,0 26 14 41 22 SW 1001,4 70 0 0,0
17.01.2018 04:00:00 5,0 1,3 4,5 3,5 4,9 7,0 28 15 42 23 SW 1000,7 70 0 0,0
17.01.2018 03:00:00 6,2 1,6 5,5 4,1 5,0 7,0 34 19 54 29 WSW 1000,1 70 0 0,0
17.01.2018 02:00:00 6,1 2,6 5,6 4,4 5,0 7,0 19 11 32 17 SSW 999,9 70 0 0,0
17.01.2018 01:00:00 6,3 2,8 5,6 4,3 5,1 7,0 23 12 39 21 WSW 1000,2 70 0 0,0
17.01.2018 00:00:00 5,5 2,5 4,9 4,1 5,2 7,0 12 7 26 14 S 1000,7 70 0 0,0
16.01.2018 23:00:00 5,5 2,1 4,7 4,0 5,3 7,0 18 10 33 18 SW 1001,5 70 0 0,0
16.01.2018 22:00:00 5,5 2,9 4,6 4,6 5,3 7,0 12 7 33 18 S 1001,5 70 0 0,0
16.01.2018 21:00:00 6,0 3,0 5,4 4,7 5,4 7,0 21 11 39 21 SW 1002,4 70 0 0,0
16.01.2018 20:00:00 6,4 2,8 5,6 5,0 5,5 7,0 25 14 57 31 WSW 1002,2 70 0 0,0
16.01.2018 19:00:00 7,8 3,3 6,4 5,2 5,6 7,0 33 18 48 26 WSW 1001,3 30 0 0,0
16.01.2018 18:00:00 5,6 3,6 5,0 5,4 5,6 7,0 9 5 13 7 S 1001,8 35 0 0,0
16.01.2018 17:00:00 5,3 3,5 4,6 5,9 5,6 7,0 7 4 43 23 S 1001,9 70 0 0,9
16.01.2018 16:00:00 5,9 3,1 5,4 7,1 5,5 7,0 15 8 85 46 WNW 1003,4 35 23 0,1
16.01.2018 15:00:00 8,6 5,1 8,6 7,7 5,3 7,0 10 6 23 12 SW 1001,5 70 12 0,0
16.01.2018 14:00:00 7,4 5,3 6,7 6,7 5,2 7,1 22 12 40 21 W 1002,2 28 0 1,0
16.01.2018 13:00:00 7,8 6,0 7,1 6,9 5,0 7,1 18 10 36 19 SW 1001,3 8 0 2,2
16.01.2018 12:00:00 7,8 5,5 7,3 6,7 4,9 7,1 22 12 44 24 WSW 1001,3 70 0 0,7
16.01.2018 11:00:00 8,5 5,5 7,2 6,2 4,8 7,1 27 14 40 22 SSW 1001,4 11 1 0,0
16.01.2018 10:00:00 8,8 5,2 7,8 6,0 4,7 7,1 23 12 44 24 SSW 1001,5 60 0 0,3
16.01.2018 09:00:00 7,8 5,6 6,7 5,7 4,6 7,1 24 13 40 21 SSW 1001,3 12 0 0,3
16.01.2018 08:00:00 7,9 5,7 6,7 5,6 4,5 7,1 23 12 47 26 SSW 1000,7 7 0 0,1
16.01.2018 07:00:00 8,1 5,5 6,7 5,5 4,4 7,1 32 18 54 29 SSW 1000,7 13 0 0,4
16.01.2018 06:00:00 7,9 5,1 7,0 5,3 4,3 7,1 28 15 49 26 SSW 1000,4 24 0 0,1
16.01.2018 05:00:00 8,0 5,0 6,6 5,4 4,2 7,1 29 16 46 25 S 1001,7 43 0 0,3
16.01.2018 04:00:00 8,3 4,9 6,4 5,3 4,0 7,2 27 14 41 22 SSW 1002,8 26 0 0,3
16.01.2018 03:00:00 8,3 4,6 7,7 5,1 3,9 7,2 30 16 48 26 SSW 1003,3 54 0 0,0
16.01.2018 02:00:00 8,3 4,3 7,5 4,9 3,8 7,2 30 16 48 26 S 1003,0 70 0 0,0
16.01.2018 01:00:00 7,9 4,1 7,3 4,8 3,6 7,2 31 17 55 30 SSW 1003,7 70 0 0,0
16.01.2018 00:00:00 7,7 3,9 7,1 4,6 3,5 7,2 38 21 60 33 SSW 1004,2 70 0 0,0
15.01.2018 23:00:00 7,3 3,8 6,1 4,5 3,3 7,2 40 21 67 36 SSW 1004,7 70 0 0,2
15.01.2018 22:00:00 7,2 3,8 5,8 4,3 3,2 7,2 45 24 69 37 SSW 1005,0 11 0 0,3
15.01.2018 21:00:00 7,0 3,8 5,6 4,1 3,0 7,2 42 23 72 39 SSW 1005,9 9 0 0,1
15.01.2018 20:00:00 7,8 3,1 6,5 4,0 2,8 7,2 38 21 62 33 SSW 1006,7 20 0 0,1
15.01.2018 19:00:00 8,4 2,3 6,6 3,4 2,6 7,2 31 17 54 29 SSW 1007,4 17 0 0,0
15.01.2018 18:00:00 8,1 1,7 7,3 3,1 2,4 7,3 27 15 41 22 SSW 1008,9 40 0 0,0
15.01.2018 17:00:00 7,7 1,5 6,9 2,6 2,2 7,3 24 13 42 23 S 1010,1 28 0 0,0
15.01.2018 16:00:00 8,0 1,5 7,1 1,3 2,2 7,3 26 14 37 20 S 1010,9 35 0 0,0
15.01.2018 15:00:00 7,5 1,4 6,7 0,2 2,2 7,3 14 8 27 15 SSW 1013,0 29 0 0,0
15.01.2018 14:00:00 6,8 1,2 6,2 0,2 2,2 7,3 14 8 23 12 SSW 1014,5 20 4 0,0
15.01.2018 13:00:00 4,3 1,2 4,0 0,1 2,2 7,3 10 5 15 8 SW 1016,3 13 0 0,0
15.01.2018 12:00:00 2,3 -0,3 2,2 0,1 2,2 7,3 9 5 13 7 SSW 1017,7 10 0 0,0
15.01.2018 11:00:00 0,9 -1,0 0,2 0,1 2,3 7,3 6 3 14 8 SSW 1019,3 8 0 0,0
15.01.2018 10:00:00 0,2 -1,5 -0,3 0,1 2,3 7,3 9 5 14 7 SSW 1019,5 6 1 0,0
15.01.2018 09:00:00 -0,6 -1,9 -1,0 0,1 2,3 7,3 7 4 14 7 S 1020,3 6 0 0,0
15.01.2018 08:00:00 -1,2 -2,3 -1,7 0,1 2,3 7,3 8 5 13 7 SSW 1020,4 6 0 0,0
15.01.2018 07:00:00 -1,6 -2,7 -2,3 0,1 2,4 7,4 9 5 13 7 SSW 1020,8 5 0 0,0
15.01.2018 06:00:00 -1,8 -2,8 -3,3 0,2 2,4 7,4 7 4 11 6 SSW 1021,1 4,8 0 0,0
15.01.2018 05:00:00 -0,9 -2,2 -1,9 0,2 2,4 7,4 6 3 11 6 S 1021,3 6 0 0,0
15.01.2018 04:00:00 -0,8 -2,1 -1,8 0,2 2,5 7,4 7 4 11 6 S 1021,9 6 0 0,0

tt = Température de l'air
td = dewpoint
tt 5cm = Température de l'air 5cm
tt -5cm = Température de l'air -5cm
tt -20cm = Température de l'air -20cm
tt -100cm = Température de l'air -100cm
ff = Vitesse du vent
fx = gusts
dd = Direction du vent
ppp = reduced air pressure
vv = visibility
sd = Ensoleillement
rr = Quantités de précipitations

stations d'obs. à proximité